Time,TemperatureF,DewpointF,PressureIn,WindDirection,WindDirectionDegrees,WindSpeedMPH,WindSpeedGustMPH,Humidity,HourlyPrecipIn,Conditions,Clouds,dailyrainin,SoftwareType,DateUTC
2013-08-26 00:02:00,73.4,55.4,30.11,SW,223,11.5,-999.9,53,-99.99,,,-99.99,,2013-08-26 04:02:00,
2013-08-26 00:04:00,73.4,55.4,30.11,SW,223,11.5,-999.9,53,-99.99,,,-99.99,,2013-08-26 04:04:00,
2013-08-26 00:06:00,73.4,55.4,30.11,SW,223,11.5,-999.9,53,-99.99,,,-99.99,,2013-08-26 04:06:00,
2013-08-26 00:10:00,73.4,55.4,30.11,SW,223,11.5,-999.9,53,-99.99,,,-99.99,,2013-08-26 04:10:00,
2013-08-26 00:16:00,73.4,55.4,30.11,SW,224,12.7,-999.9,53,-99.99,,,-99.99,,2013-08-26 04:16:00,
2013-08-26 00:22:00,73.4,55.4,30.11,SW,230,10.4,-999.9,53,-99.99,,,-99.99,,2013-08-26 04:22:00,
2013-08-26 00:28:00,73.4,55.4,30.11,SW,230,10.4,-999.9,53,-99.99,,,-99.99,,2013-08-26 04:28:00,
2013-08-26 00:30:00,73.4,55.4,30.11,SW,230,10.4,-999.9,53,-99.99,,,-99.99,,2013-08-26 04:30:00,
2013-08-26 00:36:00,73.4,55.4,30.11,WSW,238,12.7,-999.9,53,-99.99,,,-99.99,,2013-08-26 04:36:00,
2013-08-26 00:42:00,73.4,55.4,30.11,SW,233,5.8,-999.9,53,-99.99,,,-99.99,,2013-08-26 04:42:00,
2013-08-26 00:48:00,73.4,55.4,30.11,SW,233,5.8,-999.9,53,-99.99,,,-99.99,,2013-08-26 04:48:00,
2013-08-26 00:54:00,73.4,55.4,30.11,SW,227,8.1,-999.9,53,-99.99,,,-99.99,,2013-08-26 04:54:00,
2013-08-26 01:00:00,73.4,55.4,30.11,SW,227,8.1,-999.9,53,-99.99,,,-99.99,,2013-08-26 05:00:00,
2013-08-26 01:06:00,73.4,57.2,30.11,WSW,239,5.8,-999.9,57,-99.99,,,-99.99,,2013-08-26 05:06:00,
2013-08-26 01:32:00,73.4,55.4,30.11,SW,220,5.8,-999.9,53,-99.99,,,-99.99,,2013-08-26 05:32:00,
2013-08-26 01:38:00,73.4,55.4,30.11,SW,220,5.8,-999.9,53,-99.99,,,-99.99,,2013-08-26 05:38:00,
2013-08-26 02:02:00,71.6,55.4,30.11,SW,233,13.8,-999.9,57,-99.99,,,-99.99,,2013-08-26 06:02:00,
2013-08-26 02:08:00,71.6,55.4,30.11,SW,233,13.8,-999.9,57,-99.99,,,-99.99,,2013-08-26 06:08:00,
2013-08-26 02:14:00,71.6,55.4,30.11,SW,228,8.1,-999.9,57,-99.99,,,-99.99,,2013-08-26 06:14:00,
2013-08-26 02:20:00,71.6,55.4,30.11,SW,228,8.1,-999.9,57,-99.99,,,-99.99,,2013-08-26 06:20:00,
2013-08-26 02:26:00,71.6,55.4,30.11,West,259,10.4,-999.9,57,-99.99,,,-99.99,,2013-08-26 06:26:00,
2013-08-26 02:32:00,71.6,53.6,30.10,WSW,240,8.1,-999.9,53,-99.99,,,-99.99,,2013-08-26 06:32:00,
2013-08-26 02:38:00,71.6,53.6,30.10,WSW,240,8.1,-999.9,53,-99.99,,,-99.99,,2013-08-26 06:38:00,
2013-08-26 02:44:00,71.6,55.4,30.10,WSW,250,9.2,-999.9,57,-99.99,,,-99.99,,2013-08-26 06:44:00,
2013-08-26 02:50:00,71.6,55.4,30.10,WSW,250,9.2,-999.9,57,-99.99,,,-99.99,,2013-08-26 06:50:00,
2013-08-26 02:56:00,71.6,55.4,30.09,SW,230,11.5,-999.9,57,-99.99,,,-99.99,,2013-08-26 06:56:00,
2013-08-26 03:02:00,71.6,55.4,30.09,WSW,254,15.0,-999.9,57,-99.99,,,-99.99,,2013-08-26 07:02:00,
2013-08-26 03:08:00,71.6,55.4,30.09,WSW,254,15.0,-999.9,57,-99.99,,,-99.99,,2013-08-26 07:08:00,
2013-08-26 03:14:00,71.6,55.4,30.08,WSW,237,8.1,-999.9,57,-99.99,,,-99.99,,2013-08-26 07:14:00,
2013-08-26 03:20:00,71.6,55.4,30.08,WSW,237,8.1,-999.9,57,-99.99,,,-99.99,,2013-08-26 07:20:00,
2013-08-26 03:26:00,71.6,55.4,30.08,SW,230,9.2,-999.9,57,-99.99,,,-99.99,,2013-08-26 07:26:00,
2013-08-26 03:32:00,71.6,57.2,30.07,SW,230,6.9,-999.9,60,-99.99,,,-99.99,,2013-08-26 07:32:00,
2013-08-26 03:38:00,71.6,57.2,30.07,SW,230,6.9,-999.9,60,-99.99,,,-99.99,,2013-08-26 07:38:00,
2013-08-26 03:44:00,71.6,55.4,30.07,SW,227,5.8,-999.9,57,-99.99,,,-99.99,,2013-08-26 07:44:00,
2013-08-26 03:50:00,71.6,55.4,30.07,SW,227,5.8,-999.9,57,-99.99,,,-99.99,,2013-08-26 07:50:00,
2013-08-26 03:56:00,71.6,55.4,30.07,SW,229,8.1,-999.9,57,-99.99,,,-99.99,,2013-08-26 07:56:00,
2013-08-26 04:02:00,71.6,55.4,30.07,SW,229,5.8,-999.9,57,-99.99,,,-99.99,,2013-08-26 08:02:00,
2013-08-26 04:08:00,71.6,55.4,30.07,SW,229,5.8,-999.9,57,-99.99,,,-99.99,,2013-08-26 08:08:00,
2013-08-26 04:14:00,71.6,57.2,30.06,WSW,238,3.5,-999.9,60,-99.99,,,-99.99,,2013-08-26 08:14:00,
2013-08-26 04:20:00,71.6,57.2,30.06,WSW,238,3.5,-999.9,60,-99.99,,,-99.99,,2013-08-26 08:20:00,
2013-08-26 04:26:00,71.6,55.4,30.06,SW,231,8.1,-999.9,57,-99.99,,,-99.99,,2013-08-26 08:26:00,
2013-08-26 04:32:00,71.6,57.2,30.06,SW,216,5.8,-999.9,60,-99.99,,,-99.99,,2013-08-26 08:32:00,
2013-08-26 04:38:00,71.6,57.2,30.06,SW,216,5.8,-999.9,60,-99.99,,,-99.99,,2013-08-26 08:38:00,
2013-08-26 04:44:00,71.6,57.2,30.06,SW,236,5.8,-999.9,60,-99.99,,,-99.99,,2013-08-26 08:44:00,
2013-08-26 04:50:00,71.6,57.2,30.06,SW,236,5.8,-999.9,60,-99.99,,,-99.99,,2013-08-26 08:50:00,
2013-08-26 04:56:00,71.6,57.2,30.07,SSW,211,3.5,-999.9,60,-99.99,,,-99.99,,2013-08-26 08:56:00,
2013-08-26 05:02:00,71.6,57.2,30.07,WSW,246,6.9,-999.9,60,-99.99,,,-99.99,,2013-08-26 09:02:00,
2013-08-26 05:08:00,71.6,57.2,30.07,WSW,246,6.9,-999.9,60,-99.99,,,-99.99,,2013-08-26 09:08:00,
2013-08-26 05:14:00,71.6,57.2,30.06,SW,223,8.1,-999.9,60,-99.99,,,-99.99,,2013-08-26 09:14:00,
2013-08-26 05:20:00,71.6,57.2,30.06,SW,223,8.1,-999.9,60,-99.99,,,-99.99,,2013-08-26 09:20:00,
2013-08-26 05:26:00,71.6,57.2,30.06,WSW,240,6.9,-999.9,60,-99.99,,,-99.99,,2013-08-26 09:26:00,
2013-08-26 05:32:00,71.6,57.2,30.06,SW,234,11.5,-999.9,60,-99.99,,,-99.99,,2013-08-26 09:32:00,
2013-08-26 05:38:00,71.6,57.2,30.06,SW,234,11.5,-999.9,60,-99.99,,,-99.99,,2013-08-26 09:38:00,
2013-08-26 05:44:00,71.6,57.2,30.06,WSW,251,9.2,-999.9,60,-99.99,,,-99.99,,2013-08-26 09:44:00,
2013-08-26 05:50:00,71.6,57.2,30.06,WSW,251,9.2,-999.9,60,-99.99,,,-99.99,,2013-08-26 09:50:00,
2013-08-26 05:56:00,71.6,57.2,30.06,WSW,249,10.4,-999.9,60,-99.99,,,-99.99,,2013-08-26 09:56:00,
2013-08-26 06:02:00,71.6,57.2,30.06,WSW,243,9.2,-999.9,60,-99.99,,,-99.99,,2013-08-26 10:02:00,
2013-08-26 06:08:00,71.6,57.2,30.06,WSW,243,9.2,-999.9,60,-99.99,,,-99.99,,2013-08-26 10:08:00,
2013-08-26 06:14:00,71.6,55.4,30.06,West,280,11.5,-999.9,57,-99.99,,,-99.99,,2013-08-26 10:14:00,
2013-08-26 06:20:00,71.6,55.4,30.06,West,280,11.5,-999.9,57,-99.99,,,-99.99,,2013-08-26 10:20:00,
2013-08-26 06:26:00,71.6,55.4,30.06,West,274,11.5,-999.9,57,-99.99,,,-99.99,,2013-08-26 10:26:00,
2013-08-26 06:32:00,71.6,55.4,30.06,West,265,11.5,-999.9,57,-99.99,,,-99.99,,2013-08-26 10:32:00,
2013-08-26 06:38:00,71.6,55.4,30.06,West,265,11.5,-999.9,57,-99.99,,,-99.99,,2013-08-26 10:38:00,
2013-08-26 06:44:00,71.6,55.4,30.06,SW,229,10.4,-999.9,57,-99.99,,,-99.99,,2013-08-26 10:44:00,
2013-08-26 06:50:00,71.6,55.4,30.06,SW,229,10.4,-999.9,57,-99.99,,,-99.99,,2013-08-26 10:50:00,
2013-08-26 06:56:00,71.6,55.4,30.05,West,259,11.5,-999.9,57,-99.99,,,-99.99,,2013-08-26 10:56:00,
2013-08-26 07:02:00,71.6,55.4,30.06,West,262,11.5,-999.9,57,-99.99,,,-99.99,,2013-08-26 11:02:00,
2013-08-26 07:08:00,71.6,55.4,30.06,West,262,11.5,-999.9,57,-99.99,,,-99.99,,2013-08-26 11:08:00,
2013-08-26 07:14:00,69.8,53.6,30.05,West,262,12.7,-999.9,56,-99.99,,,-99.99,,2013-08-26 11:14:00,
2013-08-26 07:20:00,69.8,53.6,30.05,West,262,12.7,-999.9,56,-99.99,,,-99.99,,2013-08-26 11:20:00,
2013-08-26 07:26:00,69.8,53.6,30.04,WSW,255,10.4,-999.9,56,-99.99,,,-99.99,,2013-08-26 11:26:00,
2013-08-26 07:32:00,71.6,55.4,30.04,West,268,16.1,-999.9,57,-99.99,,,-99.99,,2013-08-26 11:32:00,
2013-08-26 07:38:00,71.6,55.4,30.04,West,268,16.1,-999.9,57,-99.99,,,-99.99,,2013-08-26 11:38:00,
2013-08-26 07:44:00,71.6,55.4,30.04,West,272,16.1,-999.9,57,-99.99,,,-99.99,,2013-08-26 11:44:00,
2013-08-26 07:50:00,71.6,55.4,30.04,West,272,16.1,-999.9,57,-99.99,,,-99.99,,2013-08-26 11:50:00,
2013-08-26 07:56:00,71.6,55.4,30.04,WSW,249,13.8,-999.9,57,-99.99,,,-99.99,,2013-08-26 11:56:00,
2013-08-26 08:02:00,71.6,57.2,30.04,WSW,248,4.6,-999.9,60,-99.99,,,-99.99,,2013-08-26 12:02:00,
2013-08-26 08:08:00,71.6,57.2,30.04,WSW,248,4.6,-999.9,60,-99.99,,,-99.99,,2013-08-26 12:08:00,
2013-08-26 08:14:00,71.6,57.2,30.04,West,259,9.2,-999.9,60,-99.99,,,-99.99,,2013-08-26 12:14:00,
2013-08-26 08:20:00,71.6,57.2,30.04,West,259,9.2,-999.9,60,-99.99,,,-99.99,,2013-08-26 12:20:00,
2013-08-26 08:26:00,71.6,57.2,30.04,WSW,241,9.2,-999.9,60,-99.99,,,-99.99,,2013-08-26 12:26:00,
2013-08-26 08:32:00,71.6,57.2,30.03,WSW,258,9.2,-999.9,60,-99.99,,,-99.99,,2013-08-26 12:32:00,
2013-08-26 08:38:00,71.6,57.2,30.03,WSW,258,9.2,-999.9,60,-99.99,,,-99.99,,2013-08-26 12:38:00,
2013-08-26 08:44:00,71.6,57.2,30.03,West,270,15.0,-999.9,60,-99.99,,,-99.99,,2013-08-26 12:44:00,
2013-08-26 08:50:00,71.6,57.2,30.03,West,270,15.0,-999.9,60,-99.99,,,-99.99,,2013-08-26 12:50:00,
2013-08-26 08:56:00,71.6,57.2,30.03,West,259,12.7,-999.9,60,-99.99,,,-99.99,,2013-08-26 12:56:00,
2013-08-26 09:02:00,71.6,57.2,30.03,WSW,242,9.2,-999.9,60,-99.99,,,-99.99,,2013-08-26 13:02:00,
2013-08-26 09:08:00,71.6,57.2,30.03,WSW,242,9.2,-999.9,60,-99.99,,,-99.99,,2013-08-26 13:08:00,
2013-08-26 09:14:00,71.6,55.4,30.03,WSW,246,11.5,-999.9,57,-99.99,,,-99.99,,2013-08-26 13:14:00,
2013-08-26 09:20:00,71.6,55.4,30.03,WSW,246,11.5,-999.9,57,-99.99,,,-99.99,,2013-08-26 13:20:00,
2013-08-26 09:26:00,71.6,57.2,30.03,WSW,249,15.0,-999.9,60,-99.99,,,-99.99,,2013-08-26 13:26:00,
2013-08-26 09:32:00,71.6,57.2,30.02,SW,231,8.1,-999.9,60,-99.99,,,-99.99,,2013-08-26 13:32:00,
2013-08-26 09:38:00,71.6,57.2,30.02,SW,231,8.1,-999.9,60,-99.99,,,-99.99,,2013-08-26 13:38:00,
2013-08-26 09:44:00,71.6,57.2,30.02,SW,234,11.5,-999.9,60,-99.99,,,-99.99,,2013-08-26 13:44:00,
2013-08-26 09:50:00,71.6,57.2,30.02,SW,234,11.5,-999.9,60,-99.99,,,-99.99,,2013-08-26 13:50:00,
2013-08-26 09:56:00,71.6,57.2,30.02,SW,227,11.5,-999.9,60,-99.99,,,-99.99,,2013-08-26 13:56:00,
2013-08-26 10:02:00,73.4,59.0,30.02,SW,219,6.9,-999.9,61,-99.99,,,-99.99,,2013-08-26 14:02:00,
2013-08-26 10:08:00,73.4,59.0,30.02,SW,219,6.9,-999.9,61,-99.99,,,-99.99,,2013-08-26 14:08:00,
2013-08-26 10:14:00,73.4,57.2,30.01,West,262,8.1,-999.9,57,-99.99,,,-99.99,,2013-08-26 14:14:00,
2013-08-26 10:20:00,73.4,57.2,30.01,West,262,8.1,-999.9,57,-99.99,,,-99.99,,2013-08-26 14:20:00,
2013-08-26 10:26:00,73.4,57.2,30.01,WSW,248,6.9,-999.9,57,-99.99,,,-99.99,,2013-08-26 14:26:00,
2013-08-26 10:32:00,75.2,57.2,30.01,SSW,212,8.1,-999.9,53,-99.99,,,-99.99,,2013-08-26 14:32:00,
2013-08-26 10:38:00,75.2,57.2,30.01,SSW,212,8.1,-999.9,53,-99.99,,,-99.99,,2013-08-26 14:38:00,
2013-08-26 10:44:00,77.0,59.0,30.00,WSW,247,6.9,-999.9,54,-99.99,,,-99.99,,2013-08-26 14:44:00,
2013-08-26 10:50:00,77.0,59.0,30.00,WSW,247,6.9,-999.9,54,-99.99,,,-99.99,,2013-08-26 14:50:00,
2013-08-26 10:56:00,77.0,57.2,29.99,West,265,11.5,-999.9,50,-99.99,,,-99.99,,2013-08-26 14:56:00,
2013-08-26 11:02:00,77.0,57.2,29.98,West,273,12.7,-999.9,50,-99.99,,,-99.99,,2013-08-26 15:02:00,
2013-08-26 11:08:00,77.0,57.2,29.98,West,273,12.7,-999.9,50,-99.99,,,-99.99,,2013-08-26 15:08:00,
2013-08-26 11:14:00,78.8,59.0,29.97,WSW,257,11.5,-999.9,51,-99.99,,,-99.99,,2013-08-26 15:14:00,
2013-08-26 11:20:00,78.8,59.0,29.97,WSW,257,11.5,-999.9,51,-99.99,,,-99.99,,2013-08-26 15:20:00,
2013-08-26 11:26:00,77.0,57.2,29.96,West,265,17.3,-999.9,50,-99.99,,,-99.99,,2013-08-26 15:26:00,
2013-08-26 11:32:00,78.8,59.0,29.96,WSW,257,8.1,-999.9,51,-99.99,,,-99.99,,2013-08-26 15:32:00,
2013-08-26 11:38:00,78.8,59.0,29.96,WSW,257,8.1,-999.9,51,-99.99,,,-99.99,,2013-08-26 15:38:00,
2013-08-26 11:44:00,78.8,59.0,29.96,WSW,251,8.1,-999.9,51,-99.99,,,-99.99,,2013-08-26 15:44:00,
2013-08-26 11:50:00,78.8,59.0,29.96,WSW,251,8.1,-999.9,51,-99.99,,,-99.99,,2013-08-26 15:50:00,
2013-08-26 11:56:00,77.0,59.0,29.96,SW,226,10.4,-999.9,54,-99.99,,,-99.99,,2013-08-26 15:56:00,
2013-08-26 12:02:00,78.8,59.0,29.95,WSW,249,9.2,-999.9,51,-99.99,,,-99.99,,2013-08-26 16:02:00,
2013-08-26 12:08:00,78.8,59.0,29.95,WSW,249,9.2,-999.9,51,-99.99,,,-99.99,,2013-08-26 16:08:00,
2013-08-26 12:14:00,78.8,59.0,29.95,SW,222,9.2,-999.9,51,-99.99,,,-99.99,,2013-08-26 16:14:00,
2013-08-26 12:20:00,78.8,59.0,29.95,SW,222,9.2,-999.9,51,-99.99,,,-99.99,,2013-08-26 16:20:00,
2013-08-26 12:26:00,78.8,59.0,29.95,SW,234,12.7,-999.9,51,-99.99,,,-99.99,,2013-08-26 16:26:00,
2013-08-26 12:32:00,78.8,59.0,29.95,West,281,12.7,-999.9,51,-99.99,,,-99.99,,2013-08-26 16:32:00,
2013-08-26 12:38:00,78.8,59.0,29.95,West,281,12.7,-999.9,51,-99.99,,,-99.99,,2013-08-26 16:38:00,
2013-08-26 12:44:00,78.8,59.0,29.94,WSW,240,10.4,-999.9,51,-99.99,,,-99.99,,2013-08-26 16:44:00,
2013-08-26 12:50:00,78.8,59.0,29.94,WSW,240,10.4,-999.9,51,-99.99,,,-99.99,,2013-08-26 16:50:00,
2013-08-26 12:56:00,80.6,60.8,29.94,WSW,257,15.0,-999.9,51,-99.99,,,-99.99,,2013-08-26 16:56:00,
2013-08-26 13:02:00,80.6,60.8,29.93,WSW,252,6.9,-999.9,51,-99.99,,,-99.99,,2013-08-26 17:02:00,
2013-08-26 13:08:00,80.6,60.8,29.93,WSW,252,6.9,-999.9,51,-99.99,,,-99.99,,2013-08-26 17:08:00,
2013-08-26 13:14:00,80.6,60.8,29.93,West,262,11.5,-999.9,51,-99.99,,,-99.99,,2013-08-26 17:14:00,
2013-08-26 13:20:00,80.6,60.8,29.93,West,262,11.5,-999.9,51,-99.99,,,-99.99,,2013-08-26 17:20:00,
2013-08-26 13:26:00,80.6,60.8,29.92,WSW,251,15.0,-999.9,51,-99.99,,,-99.99,,2013-08-26 17:26:00,
2013-08-26 13:32:00,80.6,60.8,29.92,West,278,11.5,-999.9,51,-99.99,,,-99.99,,2013-08-26 17:32:00,
2013-08-26 13:38:00,80.6,60.8,29.92,West,278,11.5,-999.9,51,-99.99,,,-99.99,,2013-08-26 17:38:00,
2013-08-26 13:44:00,80.6,60.8,29.91,WSW,245,9.2,-999.9,51,-99.99,,,-99.99,,2013-08-26 17:44:00,
2013-08-26 13:50:00,80.6,60.8,29.91,WSW,245,9.2,-999.9,51,-99.99,,,-99.99,,2013-08-26 17:50:00,
2013-08-26 13:56:00,80.6,60.8,29.91,WSW,256,4.6,-999.9,51,-99.99,,,-99.99,,2013-08-26 17:56:00,
2013-08-26 14:02:00,80.6,60.8,29.90,West,267,16.1,-999.9,51,-99.99,,,-99.99,,2013-08-26 18:02:00,
2013-08-26 14:08:00,80.6,60.8,29.90,West,267,16.1,-999.9,51,-99.99,,,-99.99,,2013-08-26 18:08:00,
2013-08-26 14:14:00,82.4,62.6,29.90,WSW,243,15.0,-999.9,51,-99.99,,,-99.99,,2013-08-26 18:14:00,
2013-08-26 14:20:00,82.4,62.6,29.90,WSW,243,15.0,-999.9,51,-99.99,,,-99.99,,2013-08-26 18:20:00,
2013-08-26 14:26:00,82.4,60.8,29.89,West,259,18.4,-999.9,48,-99.99,,,-99.99,,2013-08-26 18:26:00,
2013-08-26 14:32:00,82.4,60.8,29.88,WSW,251,11.5,-999.9,48,-99.99,,,-99.99,,2013-08-26 18:32:00,
2013-08-26 14:38:00,82.4,60.8,29.88,WSW,251,11.5,-999.9,48,-99.99,,,-99.99,,2013-08-26 18:38:00,
2013-08-26 14:44:00,84.2,60.8,29.87,WSW,237,8.1,-999.9,45,-99.99,,,-99.99,,2013-08-26 18:44:00,
2013-08-26 14:50:00,84.2,60.8,29.87,WSW,237,8.1,-999.9,45,-99.99,,,-99.99,,2013-08-26 18:50:00,
2013-08-26 14:56:00,84.2,60.8,29.86,WSW,244,9.2,-999.9,45,-99.99,,,-99.99,,2013-08-26 18:56:00,
2013-08-26 15:02:00,84.2,60.8,29.86,West,268,10.4,-999.9,45,-99.99,,,-99.99,,2013-08-26 19:02:00,
2013-08-26 15:08:00,84.2,60.8,29.86,West,268,10.4,-999.9,45,-99.99,,,-99.99,,2013-08-26 19:08:00,
2013-08-26 15:14:00,84.2,60.8,29.85,West,260,5.8,-999.9,45,-99.99,,,-99.99,,2013-08-26 19:14:00,
2013-08-26 15:20:00,84.2,60.8,29.85,West,260,5.8,-999.9,45,-99.99,,,-99.99,,2013-08-26 19:20:00,
2013-08-26 15:26:00,84.2,62.6,29.85,West,260,8.1,-999.9,48,-99.99,,,-99.99,,2013-08-26 19:26:00,
2013-08-26 15:32:00,84.2,62.6,29.85,West,269,11.5,-999.9,48,-99.99,,,-99.99,,2013-08-26 19:32:00,
2013-08-26 15:38:00,84.2,62.6,29.85,West,269,11.5,-999.9,48,-99.99,,,-99.99,,2013-08-26 19:38:00,
2013-08-26 15:44:00,84.2,62.6,29.85,West,264,13.8,-999.9,48,-99.99,,,-99.99,,2013-08-26 19:44:00,
2013-08-26 15:50:00,84.2,62.6,29.85,West,264,13.8,-999.9,48,-99.99,,,-99.99,,2013-08-26 19:50:00,
2013-08-26 15:56:00,82.4,60.8,29.85,SW,235,8.1,-999.9,48,-99.99,,,-99.99,,2013-08-26 19:56:00,
2013-08-26 16:02:00,82.4,62.6,29.85,West,267,8.1,-999.9,51,-99.99,,,-99.99,,2013-08-26 20:02:00,
2013-08-26 16:08:00,82.4,62.6,29.85,West,267,8.1,-999.9,51,-99.99,,,-99.99,,2013-08-26 20:08:00,
2013-08-26 16:14:00,82.4,62.6,29.84,WSW,254,9.2,-999.9,51,-99.99,,,-99.99,,2013-08-26 20:14:00,
2013-08-26 16:20:00,82.4,62.6,29.84,WSW,254,9.2,-999.9,51,-99.99,,,-99.99,,2013-08-26 20:20:00,
2013-08-26 16:26:00,82.4,62.6,29.85,West,275,10.4,-999.9,51,-99.99,,,-99.99,,2013-08-26 20:26:00,
2013-08-26 16:32:00,82.4,62.6,29.84,West,269,12.7,-999.9,51,-99.99,,,-99.99,,2013-08-26 20:32:00,
2013-08-26 16:38:00,82.4,62.6,29.84,West,269,12.7,-999.9,51,-99.99,,,-99.99,,2013-08-26 20:38:00,
2013-08-26 16:44:00,82.4,62.6,29.84,West,265,11.5,-999.9,51,-99.99,,,-99.99,,2013-08-26 20:44:00,
2013-08-26 16:50:00,82.4,62.6,29.84,West,265,11.5,-999.9,51,-99.99,,,-99.99,,2013-08-26 20:50:00,
2013-08-26 16:56:00,82.4,62.6,29.84,SW,223,13.8,-999.9,51,-99.99,,,-99.99,,2013-08-26 20:56:00,
2013-08-26 17:02:00,82.4,64.4,29.83,West,270,16.1,-999.9,54,-99.99,,,-99.99,,2013-08-26 21:02:00,
2013-08-26 17:08:00,82.4,64.4,29.83,West,270,16.1,-999.9,54,-99.99,,,-99.99,,2013-08-26 21:08:00,
2013-08-26 17:14:00,82.4,62.6,29.84,West,273,15.0,-999.9,51,-99.99,,,-99.99,,2013-08-26 21:14:00,
2013-08-26 17:20:00,82.4,62.6,29.84,West,273,15.0,-999.9,51,-99.99,,,-99.99,,2013-08-26 21:20:00,
2013-08-26 17:26:00,82.4,64.4,29.84,SW,229,4.6,-999.9,54,-99.99,,,-99.99,,2013-08-26 21:26:00,
2013-08-26 17:32:00,82.4,64.4,29.84,West,271,11.5,-999.9,54,-99.99,,,-99.99,,2013-08-26 21:32:00,
2013-08-26 17:38:00,82.4,64.4,29.84,West,271,11.5,-999.9,54,-99.99,,,-99.99,,2013-08-26 21:38:00,
2013-08-26 17:44:00,82.4,64.4,29.84,West,272,12.7,-999.9,54,-99.99,,,-99.99,,2013-08-26 21:44:00,
2013-08-26 17:50:00,82.4,64.4,29.84,West,272,12.7,-999.9,54,-99.99,,,-99.99,,2013-08-26 21:50:00,
2013-08-26 17:56:00,82.4,64.4,29.84,WSW,257,13.8,-999.9,54,-99.99,,,-99.99,,2013-08-26 21:56:00,
2013-08-26 18:02:00,80.6,62.6,29.83,WSW,243,9.2,-999.9,54,-99.99,,,-99.99,,2013-08-26 22:02:00,
2013-08-26 18:08:00,80.6,62.6,29.83,WSW,243,9.2,-999.9,54,-99.99,,,-99.99,,2013-08-26 22:08:00,
2013-08-26 18:14:00,80.6,62.6,29.83,WSW,244,8.1,-999.9,54,-99.99,,,-99.99,,2013-08-26 22:14:00,
2013-08-26 18:20:00,80.6,62.6,29.83,WSW,244,8.1,-999.9,54,-99.99,,,-99.99,,2013-08-26 22:20:00,
2013-08-26 18:26:00,80.6,62.6,29.82,WSW,255,8.1,-999.9,54,-99.99,,,-99.99,,2013-08-26 22:26:00,
2013-08-26 18:32:00,82.4,64.4,29.82,West,266,10.4,-999.9,54,-99.99,,,-99.99,,2013-08-26 22:32:00,
2013-08-26 18:38:00,82.4,64.4,29.82,West,266,10.4,-999.9,54,-99.99,,,-99.99,,2013-08-26 22:38:00,
2013-08-26 18:44:00,82.4,64.4,29.82,WSW,257,10.4,-999.9,54,-99.99,,,-99.99,,2013-08-26 22:44:00,
2013-08-26 18:50:00,82.4,64.4,29.82,WSW,257,10.4,-999.9,54,-99.99,,,-99.99,,2013-08-26 22:50:00,
2013-08-26 18:56:00,82.4,64.4,29.82,WSW,252,12.7,-999.9,54,-99.99,,,-99.99,,2013-08-26 22:56:00,
2013-08-26 19:02:00,82.4,64.4,29.82,West,265,10.4,-999.9,54,-99.99,,,-99.99,,2013-08-26 23:02:00,
2013-08-26 19:08:00,82.4,64.4,29.82,West,265,10.4,-999.9,54,-99.99,,,-99.99,,2013-08-26 23:08:00,
2013-08-26 19:14:00,82.4,64.4,29.83,West,265,11.5,-999.9,54,-99.99,,,-99.99,,2013-08-26 23:14:00,
2013-08-26 19:20:00,82.4,64.4,29.83,West,265,11.5,-999.9,54,-99.99,,,-99.99,,2013-08-26 23:20:00,
2013-08-26 19:26:00,82.4,64.4,29.83,WNW,282,6.9,-999.9,54,-99.99,,,-99.99,,2013-08-26 23:26:00,
2013-08-26 19:32:00,82.4,64.4,29.83,WNW,287,9.2,-999.9,54,-99.99,,,-99.99,,2013-08-26 23:32:00,
2013-08-26 19:38:00,82.4,64.4,29.83,WNW,287,9.2,-999.9,54,-99.99,,,-99.99,,2013-08-26 23:38:00,
2013-08-26 19:44:00,82.4,64.4,29.83,West,275,8.1,-999.9,54,-99.99,,,-99.99,,2013-08-26 23:44:00,
2013-08-26 19:50:00,82.4,64.4,29.83,West,275,8.1,-999.9,54,-99.99,,,-99.99,,2013-08-26 23:50:00,
2013-08-26 19:56:00,82.4,66.2,29.82,West,268,10.4,-999.9,58,-99.99,,,-99.99,,2013-08-26 23:56:00,
2013-08-26 20:02:00,82.4,66.2,29.82,WSW,249,6.9,-999.9,58,-99.99,,,-99.99,,2013-08-27 00:02:00,
2013-08-26 20:08:00,82.4,66.2,29.82,WSW,249,6.9,-999.9,58,-99.99,,,-99.99,,2013-08-27 00:08:00,
2013-08-26 21:02:00,80.6,66.2,29.83,WSW,239,4.6,-999.9,61,-99.99,,,-99.99,,2013-08-27 01:02:00,
2013-08-26 21:08:00,80.6,66.2,29.83,WSW,239,4.6,-999.9,61,-99.99,,,-99.99,,2013-08-27 01:08:00,
2013-08-26 21:14:00,80.6,66.2,29.82,WSW,248,4.6,-999.9,61,-99.99,,,-99.99,,2013-08-27 01:14:00,
2013-08-26 21:20:00,80.6,66.2,29.82,WSW,248,4.6,-999.9,61,-99.99,,,-99.99,,2013-08-27 01:20:00,
2013-08-26 21:26:00,80.6,66.2,29.82,SW,232,6.9,-999.9,61,-99.99,,,-99.99,,2013-08-27 01:26:00,
2013-08-26 21:32:00,82.4,66.2,29.83,West,266,20.7,-999.9,58,-99.99,,,-99.99,,2013-08-27 01:32:00,
2013-08-26 21:38:00,82.4,66.2,29.83,West,266,20.7,-999.9,58,-99.99,,,-99.99,,2013-08-27 01:38:00,
2013-08-26 21:44:00,80.6,64.4,29.83,WNW,286,12.7,-999.9,58,-99.99,,,-99.99,,2013-08-27 01:44:00,
2013-08-26 21:50:00,80.6,64.4,29.83,WNW,286,12.7,-999.9,58,-99.99,,,-99.99,,2013-08-27 01:50:00,
2013-08-26 21:56:00,80.6,66.2,29.83,WNW,283,6.9,-999.9,61,-99.99,,,-99.99,,2013-08-27 01:56:00,
2013-08-26 22:02:00,80.6,66.2,29.83,WNW,303,10.4,-999.9,61,-99.99,,,-99.99,,2013-08-27 02:02:00,
2013-08-26 22:08:00,80.6,66.2,29.83,WNW,303,10.4,-999.9,61,-99.99,,,-99.99,,2013-08-27 02:08:00,
2013-08-26 22:14:00,80.6,68.0,29.82,West,272,10.4,-999.9,65,-99.99,,,-99.99,,2013-08-27 02:14:00,
2013-08-26 22:20:00,80.6,68.0,29.82,West,272,10.4,-999.9,65,-99.99,,,-99.99,,2013-08-27 02:20:00,
2013-08-26 22:26:00,78.8,66.2,29.82,WNW,299,6.9,-999.9,65,-99.99,,,-99.99,,2013-08-27 02:26:00,
2013-08-26 22:32:00,78.8,68.0,29.82,WNW,293,1.2,-999.9,69,-99.99,,,-99.99,,2013-08-27 02:32:00,
2013-08-26 22:38:00,78.8,68.0,29.82,WNW,293,1.2,-999.9,69,-99.99,,,-99.99,,2013-08-27 02:38:00,
2013-08-26 22:44:00,78.8,68.0,29.82,WNW,289,9.2,-999.9,69,-99.99,,,-99.99,,2013-08-27 02:44:00,
2013-08-26 22:50:00,78.8,68.0,29.82,WNW,289,9.2,-999.9,69,-99.99,,,-99.99,,2013-08-27 02:50:00,
2013-08-26 22:56:00,78.8,68.0,29.81,WNW,290,6.9,-999.9,69,-99.99,,,-99.99,,2013-08-27 02:56:00,
2013-08-26 23:02:00,77.0,68.0,29.81,NW,310,3.5,-999.9,74,-99.99,,,-99.99,,2013-08-27 03:02:00,
2013-08-26 23:08:00,77.0,68.0,29.81,NW,310,3.5,-999.9,74,-99.99,,,-99.99,,2013-08-27 03:08:00,
2013-08-26 23:14:00,77.0,69.8,29.81,NW,318,6.9,-999.9,78,-99.99,,,-99.99,,2013-08-27 03:14:00,
2013-08-26 23:20:00,77.0,69.8,29.81,NW,318,6.9,-999.9,78,-99.99,,,-99.99,,2013-08-27 03:20:00,
2013-08-26 23:26:00,77.0,69.8,29.81,West,273,1.2,-999.9,78,-99.99,,,-99.99,,2013-08-27 03:26:00,
2013-08-26 23:32:00,77.0,69.8,29.80,West,267,6.9,-999.9,78,-99.99,,,-99.99,,2013-08-27 03:32:00,
2013-08-26 23:38:00,77.0,69.8,29.80,West,267,6.9,-999.9,78,-99.99,,,-99.99,,2013-08-27 03:38:00,
2013-08-26 23:44:00,75.2,68.0,29.80,West,267,6.9,-999.9,78,-99.99,,,-99.99,,2013-08-27 03:44:00,
2013-08-26 23:50:00,75.2,68.0,29.80,West,267,6.9,-999.9,78,-99.99,,,-99.99,,2013-08-27 03:50:00,
2013-08-26 23:56:00,75.2,68.0,29.80,West,265,5.8,-999.9,78,-99.99,,,-99.99,,2013-08-27 03:56:00,